TimeCST,TemperatureF,Dew PointF,Humidity,Sea Level PressureIn,VisibilityMPH,Wind Direction,Wind SpeedMPH,Gust SpeedMPH,PrecipitationIn,Events,Conditions,WindDirDegrees,DateUTC
12:53 AM,19.9,10.9,68,30.09,10.0,NNE,4.6,-,N/A,,Overcast,30,2012-12-08 06:53:00
1:07 AM,19.4,10.4,68,30.03,10.0,NE,5.8,-,N/A,,Unknown,40,2012-12-08 07:07:00
1:34 AM,19.4,10.4,68,30.02,10.0,NE,4.6,-,N/A,,Overcast,50,2012-12-08 07:34:00
1:53 AM,19.9,12.0,71,30.06,10.0,ENE,6.9,-,N/A,,Overcast,70,2012-12-08 07:53:00
2:53 AM,21.0,12.0,68,30.05,10.0,ENE,3.5,-,N/A,,Overcast,60,2012-12-08 08:53:00
3:53 AM,21.9,14.0,72,30.04,10.0,Calm,Calm,-,N/A,,Overcast,0,2012-12-08 09:53:00
4:53 AM,23.0,15.8,74,29.97,10.0,Calm,Calm,-,N/A,,Overcast,0,2012-12-08 10:53:00
5:01 AM,23.0,15.8,74,29.97,10.0,Calm,Calm,-,N/A,,Overcast,0,2012-12-08 11:01:00
5:53 AM,25.0,19.0,78,30.01,9.0,SE,5.8,-,N/A,,Overcast,140,2012-12-08 11:53:00
6:53 AM,26.1,21.9,84,30.00,6.0,SSE,10.4,-,N/A,,Overcast,160,2012-12-08 12:53:00
7:53 AM,26.1,23.0,88,29.99,4.0,SSE,9.2,-,N/A,,Overcast,150,2012-12-08 13:53:00
8:17 AM,26.6,23.0,86,29.94,2.5,SSE,10.4,-,N/A,,Overcast,150,2012-12-08 14:17:00
8:53 AM,27.0,24.1,89,30.00,2.5,SSE,8.1,-,N/A,,Overcast,160,2012-12-08 14:53:00
9:11 AM,28.4,24.8,86,29.95,3.0,South,10.4,-,N/A,,Overcast,170,2012-12-08 15:11:00
9:53 AM,28.9,25.0,85,30.01,4.0,South,8.1,-,N/A,,Overcast,170,2012-12-08 15:53:00
10:53 AM,30.9,26.1,82,29.99,5.0,SSE,13.8,-,N/A,,Haze,160,2012-12-08 16:53:00
11:25 AM,30.2,24.8,80,29.94,6.0,South,18.4,24.2,N/A,,Haze,170,2012-12-08 17:25:00
11:53 AM,30.9,25.0,79,29.98,9.0,South,15.0,-,N/A,,Overcast,170,2012-12-08 17:53:00
12:53 PM,30.9,24.1,76,29.96,9.0,SSE,16.1,-,N/A,,Overcast,150,2012-12-08 18:53:00
1:53 PM,32.0,24.1,73,29.95,10.0,SSE,17.3,-,N/A,,Overcast,160,2012-12-08 19:53:00
2:53 PM,30.9,24.1,76,29.95,9.0,SSE,21.9,27.6,N/A,,Overcast,160,2012-12-08 20:53:00
3:53 PM,30.9,24.1,76,29.96,10.0,SSE,9.2,-,N/A,,Overcast,150,2012-12-08 21:53:00
4:53 PM,30.0,23.0,75,29.99,10.0,South,10.4,-,N/A,,Overcast,170,2012-12-08 22:53:00
5:53 PM,28.9,23.0,78,29.99,10.0,SSE,9.2,-,N/A,,Overcast,160,2012-12-08 23:53:00
6:07 PM,28.4,23.0,80,29.95,10.0,SSE,10.4,-,N/A,,Overcast,160,2012-12-09 00:07:00
6:25 PM,28.4,23.0,80,29.96,10.0,SSE,8.1,-,N/A,,Overcast,150,2012-12-09 00:25:00
6:53 PM,28.4,23.0,80,29.96,10.0,SSE,6.9,-,N/A,,Overcast,150,2012-12-09 00:53:00
7:18 PM,28.4,23.0,80,29.97,10.0,SE,5.8,-,N/A,,Overcast,130,2012-12-09 01:18:00
7:53 PM,28.9,23.0,78,30.02,10.0,NNE,4.6,-,N/A,,Overcast,30,2012-12-09 01:53:00
8:19 PM,28.4,23.0,80,29.98,10.0,North,4.6,-,N/A,,Overcast,360,2012-12-09 02:19:00
8:42 PM,23.0,17.6,80,29.98,1.8,North,12.7,-,0.00,Snow,Light Snow,10,2012-12-09 02:42:00
8:53 PM,21.9,18.0,85,30.03,1.2,North,10.4,-,0.00,Snow,Light Snow,10,2012-12-09 02:53:00
9:08 PM,21.2,17.6,86,29.99,1.8,North,12.7,-,0.00,Snow,Light Snow,10,2012-12-09 03:08:00
9:21 PM,21.2,17.6,86,29.99,2.5,North,13.8,-,N/A,Snow,Light Snow,10,2012-12-09 03:21:00
9:30 PM,21.2,17.6,86,29.99,4.0,North,12.7,-,0.00,Snow,Light Snow,360,2012-12-09 03:30:00
9:53 PM,21.0,17.1,85,30.05,3.0,North,11.5,-,0.00,Snow,Light Snow,10,2012-12-09 03:53:00
9:57 PM,21.2,17.6,86,30.00,2.5,North,12.7,-,0.00,Snow,Light Snow,10,2012-12-09 03:57:00
10:09 PM,21.2,17.6,86,30.00,1.2,North,11.5,-,0.00,Snow,Light Snow,360,2012-12-09 04:09:00
10:54 PM,21.9,18.0,85,30.06,-9999.0,North,15.0,-,0.02,Snow,Light Snow,360,2012-12-09 04:54:00
11:01 PM,21.2,17.6,86,30.02,1.0,North,15.0,-,0.00,Snow,Light Snow,360,2012-12-09 05:01:00
11:13 PM,21.2,17.6,86,30.02,0.8,North,15.0,-,0.01,Snow,Light Snow,360,2012-12-09 05:13:00
11:16 PM,21.2,17.6,86,30.02,1.0,North,13.8,-,0.01,Snow,Light Snow,10,2012-12-09 05:16:00
11:53 PM,21.0,16.0,81,30.07,1.0,North,18.4,-,0.02,Snow,Light Snow,360,2012-12-09 05:53:00